Weather History for Sanford, FL

Change the Weather History Date:

Monday, August 19, 2013

  Actual Average Record
Temperature  
Mean Temperature 82 °F -  
Max Temperature 91 °F 92 °F 96 °F (1987)
Min Temperature 73 °F 72 °F 64 °F (1960)
Cooling Degree Days 17    
Growing Degree Days 32 (Base 50)    
Moisture  
Dew Point 75 °F    
Average Humidity 86    
Maximum Humidity 100    
Minimum Humidity 55    
Precipitation  
Precipitation 0.93 in - - ()
Sea Level Pressure  
Sea Level Pressure 30.05 in    
Wind  
Wind Speed 5 mph (SE)    
Max Wind Speed 29 mph    
Max Gust Speed 34 mph    
Visibility 8 miles    
Events Fog , Rain , Thunderstorm    
Averages and records for this station are not official NWS values.
T = Trace of Precipitation, MM = Missing Value Source: NWS Daily Summary

Daily Weather History Graph

Daily Weather History Graph

Search for Another Location

Airport:

Trip Planner

Search our weather history database for the weather conditions in past years. The results will help you decide how hot, cold, wet, or windy it might be!

Date:

Astronomy

Aug. 19, 2013 Rise Set
Actual Time 6:56 AM EDT 8:00 PM EDT
Civil Twilight 6:31 AM EDT 8:24 PM EDT
Nautical Twilight 6:02 AM EDT 8:53 PM EDT
Astronomical Twilight 5:32 AM EDT 9:23 PM EDT
Moon 6:50 PM EDT (8/19) 5:16 AM EDT (8/19)
Length of Visible Light 13h 53m
Length of Day
13h 03m
Waxing Gibbous, 97% of the Moon is Illuminated
Aug 19
Waxing Gibbous
Aug 20
Full
Aug 28
Last Quarter
Sep 5
New
Sep 12
First Quarter

Hourly Weather History & Observations

Time (EDT) Temp. Heat Index Dew Point Humidity Pressure Visibility Wind Dir Wind Speed Gust Speed Precip Events Conditions
12:07 AM 78.8 °F - 73.4 °F 83% 30.11 in 10.0 mi Calm Calm - N/A   Scattered Clouds
12:53 AM 78.1 °F - 73.0 °F 84% 30.10 in 10.0 mi Calm Calm - 0.00 in   Clear
1:53 AM 77.0 °F - 73.9 °F 90% 30.09 in 10.0 mi Calm Calm - N/A   Mostly Cloudy
2:24 AM 78.8 °F - 73.4 °F 83% 30.08 in 10.0 mi Calm Calm - N/A   Scattered Clouds
2:53 AM 77.0 °F - 73.9 °F 90% 30.06 in 10.0 mi East 5.8 mph - N/A   Clear
3:53 AM 77.0 °F - 75.9 °F 96% 30.04 in 8.0 mi Calm Calm - N/A   Clear
4:53 AM 75.9 °F - 75.9 °F 100% 30.03 in 7.0 mi NE 3.5 mph - N/A   Clear
5:53 AM 75.9 °F - 75.0 °F 97% 30.04 in 7.0 mi Calm Calm - N/A   Clear
6:53 AM 75.9 °F - 75.9 °F 100% 30.04 in 7.0 mi Calm Calm - N/A   Partly Cloudy
7:53 AM 79.0 °F - 77.0 °F 94% 30.05 in 8.0 mi Calm Calm - N/A   Clear
8:53 AM 82.0 °F 91.0 °F 78.1 °F 88% 30.07 in 10.0 mi Calm Calm - N/A   Partly Cloudy
9:08 AM 82.4 °F 92.4 °F 78.8 °F 89% 30.07 in 10.0 mi Variable 4.6 mph - N/A   Mostly Cloudy
9:30 AM 84.2 °F 96.1 °F 78.8 °F 84% 30.07 in 10.0 mi ESE 6.9 mph - N/A   Scattered Clouds
9:53 AM 84.9 °F 95.3 °F 77.0 °F 77% 30.07 in 10.0 mi SE 8.1 mph - N/A   Scattered Clouds
10:53 AM 87.1 °F 96.3 °F 75.0 °F 67% 30.08 in 10.0 mi SSE 6.9 mph - N/A   Scattered Clouds
11:53 AM 82.9 °F 90.2 °F 75.0 °F 77% 30.08 in 10.0 mi ENE 16.1 mph - N/A   Mostly Cloudy
12:04 PM 82.4 °F 90.9 °F 77.0 °F 84% 30.09 in 1.8 mi ESE 13.8 mph - 0.06 in Rain Rain
12:08 PM 82.4 °F 90.9 °F 77.0 °F 84% 30.09 in 5.0 mi SE 15.0 mph - 0.07 in Thunderstorm Thunderstorm
12:13 PM 80.6 °F 86.2 °F 75.2 °F 84% 30.09 in 7.0 mi SSE 13.8 mph - N/A Rain , Thunderstorm Light Thunderstorms and Rain
12:34 PM 80.6 °F 85.4 °F 73.4 °F 79% 30.09 in 10.0 mi SSE 6.9 mph - 0.07 in   Mostly Cloudy
12:53 PM 82.0 °F 87.9 °F 73.9 °F 76% 30.08 in 10.0 mi Variable 4.6 mph - 0.07 in   Partly Cloudy
1:53 PM 86.0 °F 93.8 °F 73.9 °F 67% 30.06 in 10.0 mi Calm Calm - N/A   Clear
2:53 PM 91.0 °F 99.3 °F 73.0 °F 55% 30.03 in 10.0 mi Calm Calm - 0.00 in Rain Light Rain
3:45 PM 80.6 °F 86.2 °F 75.2 °F 84% 30.04 in 0.8 mi SSE 28.8 mph 34.5 mph 0.19 in Rain Heavy Rain
3:48 PM 78.8 °F - 75.2 °F 89% 30.04 in 0.2 mi SSE 25.3 mph 34.5 mph 0.41 in Fog , Rain Heavy Rain
3:53 PM 77.0 °F - 75.0 °F 94% 30.03 in 0.2 mi South 25.3 mph 34.5 mph 0.71 in Fog , Rain Heavy Rain
3:55 PM 75.2 °F - 73.4 °F 94% 30.04 in 0.2 mi South 25.3 mph 33.4 mph 0.06 in Fog , Rain Heavy Rain
4:01 PM 75.2 °F - 71.6 °F 89% 30.04 in 0.5 mi SSW 11.5 mph 31.1 mph 0.11 in Fog , Rain Heavy Rain
4:09 PM 73.4 °F - 71.6 °F 94% 30.03 in 2.0 mi SW 15.0 mph 23.0 mph 0.14 in Rain Heavy Rain
4:19 PM 75.2 °F - 73.4 °F 94% 30.03 in 9.0 mi West 4.6 mph - 0.14 in Rain Light Rain
4:53 PM 77.0 °F - 73.0 °F 88% 30.01 in 10.0 mi NE 10.4 mph - 0.15 in   Mostly Cloudy
5:53 PM 82.9 °F 89.4 °F 73.9 °F 74% 30.00 in 10.0 mi East 6.9 mph - N/A   Clear
6:53 PM 82.9 °F 90.2 °F 75.0 °F 77% 30.00 in 10.0 mi East 6.9 mph - N/A   Clear
7:53 PM 81.0 °F 87.3 °F 75.9 °F 85% 30.01 in 10.0 mi ENE 3.5 mph - N/A   Clear
8:53 PM 80.1 °F 85.8 °F 77.0 °F 90% 30.03 in 10.0 mi ESE 5.8 mph - N/A   Clear
9:53 PM 79.0 °F - 75.9 °F 90% 30.04 in 10.0 mi ESE 5.8 mph - N/A   Clear
10:53 PM 78.1 °F - 75.9 °F 93% 30.05 in 10.0 mi SE 4.6 mph - N/A   Clear
11:53 PM 79.0 °F - 75.9 °F 90% 30.07 in 10.0 mi Calm Calm - N/A   Clear